Zurück zum Katalog

STARLINK-36182

AktivKommunikationVLEO
NORAD 67192·PAYLOAD·🇺🇸 United States

Gestartet Dec 17, 2025 von Vandenberg Space Force Base

Loading…

Nächste Überflüge (nächste 24 Stunden)

TLE

AktuellSource: CelesTrak SupGP

Epoche: Sep 15, 2026, 04:00 UTC

1 67192C 25304A   26258.16715278 -.00017498  00000+0 -14668-2 0  2584
2 67192  70.0017  56.7273 0002502 268.0311 193.6083 14.98329990    17

Verfolge STARLINK-36182 in Echtzeit mit AllMySat

Download on the App Store